Location: Ecklingerode
(51.5036°N, 10.3122°E)
Time: 14:36:07
(UTC+00:00)

ERBS - Pass Details

Date: 29 October 2020
Orbit: 407 x 422 km, 57.0° (Epoch: 28 November)

Event Time Altitude Azimuth Distance (km) Brightness Sun altitude
Rises 18:16:36 0° 297° (WNW) 2,373 7.2 -22.3°
Reaches altitude 10° 18:18:45 10° 304° (NW) 1,510 5.9 -22.6°
Enters shadow 18:21:03 35° 332° (NNW) 712 3.6 -22.9°
